Location: Unspecified
(0.0000°N, 0.0000°E)
Time: 19:02:58
(UTC+00:00)

Altair - All Passes

Search period start: 21 April 2015 00:00
Search period end: 01 May 2015 00:00
Orbit: 1501 x 1682 km, 47.2° (Epoch: 20 April)

Date Brightness Start Highest point End Pass type
(mag) Time Alt. Az. Time Alt. Az. Time Alt. Az.
21 Apr - 02:07:51 10° W 02:13:45 16° NW 02:18:54 10° N visible
21 Apr - 10:44:23 10° NNW 10:52:48 40° NE 11:01:39 10° ESE daylight
21 Apr - 12:48:43 10° WNW 12:57:30 42° SW 13:06:27 10° SSE daylight
21 Apr - 21:32:16 10° S 21:37:56 17° SE 21:44:10 10° E night (unlit)
21 Apr - 23:33:20 10° SW 23:43:25 86° SE 23:53:06 10° NE night (unlit)
22 Apr - 01:41:49 10° W 01:48:29 19° NW 01:54:27 10° N visible
22 Apr - 10:19:31 10° NNW 10:27:38 36° NE 10:36:10 10° ESE daylight
22 Apr - 12:23:24 10° WNW 12:32:19 48° SW 12:41:28 10° SSE daylight
22 Apr - 21:07:51 10° SSE 21:12:36 15° SE 21:18:04 10° ESE night (unlit)
22 Apr - 23:08:11 10° SW 23:18:15 77° SE 23:27:57 10° NE night (unlit)
23 Apr - 01:15:56 10° W 01:23:14 22° NW 01:29:52 10° N visible
23 Apr - 09:54:42 10° N 10:02:28 32° NE 10:10:40 10° ESE daylight
23 Apr - 11:58:06 10° NW 12:07:08 53° SW 12:16:27 10° SSE daylight
23 Apr - 20:43:40 10° SSE 20:47:15 13° SE 20:51:41 10° ESE visible
23 Apr - 22:43:03 10° SSW 22:53:04 70° SE 23:02:45 10° NE night (unlit)
24 Apr - 00:50:10 10° W 00:57:59 25° NW 01:05:12 10° N visible
24 Apr - 09:29:55 10° N 09:37:16 28° NE 09:45:05 10° ESE daylight
24 Apr - 11:32:51 10° NW 11:41:58 60° SW 11:51:24 10° SSE daylight
24 Apr - 20:20:05 10° SSE 20:21:53 11° SE 20:24:38 10° ESE visible
24 Apr - 22:17:58 10° SSW 22:27:53 63° SE 22:37:32 10° NE night (unlit)
25 Apr - 00:24:29 10° WSW 00:32:45 28° NW 00:40:28 10° N night (unlit)
25 Apr - 09:05:12 10° N 09:12:04 24° NE 09:19:26 10° E daylight
25 Apr - 11:07:39 10° NW 11:16:49 67° SW 11:26:20 10° SSE daylight
25 Apr - 13:19:28 10° WSW 13:22:35 11° SW 13:24:52 10° SSW daylight
25 Apr - 21:52:54 10° SSW 22:02:42 56° SE 22:12:16 10° NE night (unlit)
25 Apr - 23:58:52 10° WSW 00:07:32 32° NW 00:15:41 10° N night (unlit)
26 Apr - 08:40:32 10° N 08:46:51 21° NE 08:53:42 10° E daylight
26 Apr - 10:42:28 10° NW 10:51:41 75° SW 11:01:14 10° SE daylight
26 Apr - 12:52:46 10° WSW 12:57:15 13° SW 13:01:01 10° SSW daylight
26 Apr - 21:27:51 10° SSW 21:37:31 50° SE 21:46:58 10° ENE visible
26 Apr - 23:33:19 10° WSW 23:42:19 36° NW 23:50:51 10° NNE night (unlit)
27 Apr - 08:15:58 10° N 08:21:37 19° NE 08:27:52 10° E daylight
27 Apr - 10:17:19 10° NW 10:26:34 83° SW 10:36:07 10° SE daylight
27 Apr - 12:26:33 10° WSW 12:31:56 15° SW 12:36:44 10° SSW daylight
27 Apr - 21:02:51 10° SSW 21:12:18 45° SE 21:21:37 10° ENE visible
27 Apr - 23:07:50 10° WSW 23:17:08 41° NW 23:25:58 10° NNE night (unlit)
28 Apr - 07:51:31 10° NNE 07:56:23 16° NE 08:01:53 10° E daylight
28 Apr - 09:52:12 10° NW 10:01:26 88° NE 10:10:58 10° SE daylight
28 Apr - 12:00:34 10° W 12:06:38 18° SW 12:12:16 10° S daylight
28 Apr - 20:37:53 10° SSW 20:47:05 40° SE 20:56:14 10° ENE visible
28 Apr - 22:42:24 10° WSW 22:51:56 46° NW 23:01:03 10° NNE night (unlit)
29 Apr - 07:27:16 10° NNE 07:31:06 14° NE 07:35:41 10° ENE daylight
29 Apr - 09:27:07 10° NW 09:36:18 80° NE 09:45:47 10° SE daylight
29 Apr - 11:34:44 10° W 11:41:21 20° SW 11:47:40 10° S daylight
29 Apr - 20:12:57 10° SSW 20:21:51 36° SE 20:30:47 10° ENE visible
29 Apr - 22:16:59 10° SW 22:26:45 51° NW 22:36:06 10° NNE visible
30 Apr - 07:03:24 10° NNE 07:05:49 12° NE 07:09:03 10° ENE daylight
30 Apr - 09:02:03 10° NNW 09:11:10 72° NE 09:20:34 10° SE daylight
30 Apr - 11:09:01 10° W 11:16:07 23° SW 11:22:58 10° S daylight
30 Apr - 19:48:03 10° S 19:56:36 32° SE 20:05:17 10° ENE visible
30 Apr - 21:51:38 10° SW 22:01:33 58° NW 22:11:06 10° NNE visible
